Pond Inlet,

8:37 AM EDT on June 24, 2017 (GMT -0400)
Pond Inlet

Weather History for CYIO - May, 2013

Change the Weather History Date:

Sunday, May 19, 2013

  Actual Average Record
Temperature  
Mean Temperature 13 °F -  
Max Temperature 19 °F 31 °F 41 °F (2005)
Min Temperature 7 °F 23 °F 6 °F (2002)
Degree Days  
Heating Degree Days 52    
Moisture  
Dew Point 10 °F    
Average Humidity 80    
Maximum Humidity 92    
Minimum Humidity 71    
Precipitation  
Precipitation 0.00 in - - ()
Sea Level Pressure  
Sea Level Pressure 30.22 in    
Wind  
Wind Speed 4 mph ()    
Max Wind Speed 8 mph    
Max Gust Speed -    
Visibility 9.2 miles    
Events Snow    
Averages and records for this station are not official NWS values.
T = Trace of Precipitation, MM = Missing Value Source: Averaged Metar Reports

Daily Weather History Graph

Daily Weather History Graph

Search for Another Location

Airport or City:

Trip Planner

Search our weather history database for the weather conditions in past years. The results will help you decide how hot, cold, wet, or windy it might be!

Date:

Astronomy

Dec. 31, 1969 Rise Set
Actual Time Sun does not set Sun does not set
Civil Twilight Sun does not set Sun does not set
Nautical Twilight Sun does not set Sun does not set
Astronomical Twilight Sun does not set Sun does not set
Moon 2:20 PM EDT (5/19) 2:42 AM EDT (5/19)
Length of Visible Light 24h 00m
Length of Day
24h 00m
Waxing Gibbous, 65% of the Moon is Illuminated
May 19
Waxing Gibbous
May 25
Full
May 31
Last Quarter
Jun 8
New
Jun 16
First Quarter

Hourly Weather History & Observations

Time (EDT) Temp. Windchill Dew Point Humidity Pressure Visibility Wind Dir Wind Speed Gust Speed Precip Events Conditions
12:00 AM 10.4 °F -1.5 °F 5.0 °F 79% 30.19 in 9.0 mi SSE 8.1 mph - N/A Snow Light Snow
12:58 AM 10.4 °F -1.5 °F 6.8 °F 85% 30.19 in 9.0 mi SSE 8.1 mph - N/A   Clear
12:59 AM 10.4 °F -1.5 °F 6.8 °F 85% 30.19 in 9.0 mi SSE 8.1 mph - N/A Snow Light Snow
1:00 AM 10.4 °F -1.5 °F 6.8 °F 85% 30.19 in 9.0 mi SSE 8.1 mph - N/A Snow Light Snow
2:00 AM 11 °F - 6 °F 71% 30.20 in 10 mi South 5.8 mph - - Snow Light Snow
2:00 AM 10.4 °F 0.8 °F 6.8 °F 85% 30.19 in 9.0 mi SSE 5.8 mph - N/A Snow Light Snow
3:00 AM 12.2 °F 2.9 °F 6.8 °F 79% 30.20 in 9.0 mi SSE 5.8 mph - N/A Snow Light Snow
4:00 AM 6.8 °F -0.1 °F 5.0 °F 92% 30.21 in 9.0 mi South 3.5 mph - N/A Snow Light Snow
5:00 AM 9 °F - 5 °F 74% 30.22 in 10 mi South 3.5 mph - - Snow Light Snow
5:00 AM 8.6 °F 2.0 °F 5.0 °F 85% 30.22 in 9.0 mi South 3.5 mph - N/A Snow Light Snow
6:00 AM 12.2 °F 6.1 °F 6.8 °F 79% 30.22 in 9.0 mi SSW 3.5 mph - N/A Snow Light Snow
7:00 AM 12.2 °F - 6.8 °F 79% 30.22 in 9.0 mi SSW 2.3 mph - N/A Snow Light Snow
7:14 AM 14.0 °F - 8.6 °F 79% 30.22 in 9.0 mi Calm Calm - N/A   Clear
7:15 AM 14.0 °F - 8.6 °F 79% 30.22 in 9.0 mi Calm Calm - N/A Snow Light Snow
8:00 AM 14 °F - 9 °F 73% 30.23 in 10 mi ENE 1.2 mph - - Snow Light Snow
8:00 AM 14.0 °F - 8.6 °F 79% 30.22 in 9.0 mi Calm Calm - N/A Snow Light Snow
9:00 AM 15.8 °F - 10.4 °F 79% 30.22 in 9.0 mi NNE 2.3 mph - N/A Snow Light Snow
10:00 AM 15.8 °F - 10.4 °F 79% 30.22 in 9.0 mi North 2.3 mph - N/A Snow Light Snow
10:47 AM 15.8 °F - 10.4 °F 79% 30.22 in 9.0 mi North 2.3 mph - N/A   Clear
10:48 AM 15.8 °F - 10.4 °F 79% 30.22 in 9.0 mi North 2.3 mph - N/A Snow Light Snow
11:00 AM 15 °F - 10 °F 74% 30.22 in 10 mi North 2.3 mph - - Snow Light Snow
11:00 AM 15.8 °F - 10.4 °F 79% 30.22 in 9.0 mi North 2.3 mph - N/A Snow Light Snow
12:00 PM 17.6 °F - 10.4 °F 73% 30.22 in 9.0 mi West 2.3 mph - N/A Snow Light Snow
1:00 PM 17.6 °F - 12.2 °F 79% 30.21 in 9.0 mi West 2.3 mph - N/A Snow Light Snow
1:05 PM 17.6 °F 12.3 °F 12.2 °F 79% 30.21 in 9.0 mi West 3.5 mph - N/A   Clear
1:09 PM 17.6 °F 12.3 °F 12.2 °F 79% 30.21 in 9.0 mi West 3.5 mph - N/A Snow Light Snow
1:33 PM 17.6 °F 12.3 °F 12.2 °F 79% 30.21 in 9.0 mi West 3.5 mph - N/A   Clear
1:38 PM 17.6 °F 12.3 °F 12.2 °F 79% 30.21 in 9.0 mi West 3.5 mph - N/A Snow Light Snow
2:00 PM 17 °F - 12 °F 72% 30.21 in 10 mi West 4.6 mph - - Snow Light Snow
2:00 PM 17.6 °F 12.3 °F 12.2 °F 79% 30.21 in 9.0 mi WSW 3.5 mph - N/A Snow Light Snow
3:00 PM 17.6 °F 12.3 °F 12.2 °F 79% 30.21 in 9.0 mi WSW 3.5 mph - N/A Snow Light Snow
4:00 PM 17.6 °F 10.7 °F 14.0 °F 86% 30.22 in 9.0 mi South 4.6 mph - N/A Snow Light Snow
5:00 PM 18 °F - 14 °F 77% 30.22 in 10 mi SW 4.6 mph - - Snow Light Snow
5:00 PM 17.6 °F 10.7 °F 14.0 °F 86% 30.22 in 9.0 mi WSW 4.6 mph - N/A Snow Light Snow
5:08 PM 19.4 °F 14.3 °F 14.0 °F 80% 30.22 in 9.0 mi WSW 3.5 mph - N/A   Mostly Cloudy
5:09 PM 19.4 °F 12.8 °F 14.0 °F 80% 30.22 in 9.0 mi WSW 4.6 mph - N/A Snow Light Snow
6:00 PM 17.6 °F 10.7 °F 14.0 °F 86% 30.22 in 9.0 mi SW 4.6 mph - N/A Snow Light Snow
7:00 PM 17.6 °F 10.7 °F 14.0 °F 86% 30.22 in 9.0 mi SW 4.6 mph - N/A Snow Light Snow
8:00 PM 16 °F - 12 °F 78% 30.22 in 10 mi South 4.6 mph - - Snow Light Snow
8:00 PM 15.8 °F 8.6 °F 12.2 °F 86% 30.22 in 9.0 mi South 4.6 mph - N/A Snow Light Snow
9:00 PM 15.8 °F 10.2 °F 12.2 °F 86% 30.22 in 9.0 mi SE 3.5 mph - N/A Snow Light Snow
10:00 PM 14.0 °F 5.1 °F 10.4 °F 86% 30.22 in 9.0 mi SSE 5.8 mph - N/A Snow Light Snow
11:00 PM 13 °F - 9 °F 78% 30.23 in 10 mi SSE 3.5 mph - - Snow Light Snow
11:00 PM 14.0 °F 8.2 °F 8.6 °F 79% 30.23 in 9.0 mi SSE 3.5 mph - N/A Snow Light Snow
11:05 PM 12.2 °F 6.1 °F 8.6 °F 85% 30.23 in 9.0 mi SSE 3.5 mph - N/A   Clear
11:06 PM 12.2 °F 6.1 °F 8.6 °F 85% 30.23 in 9.0 mi SSE 3.5 mph - N/A Snow Light Snow